Unicom:                    122.8

AWOS:                  118.275

Elevation           1458’ MSL

TPA:                   2500’ MSL

06/24:         5003’ L   75’ W

PAPI:       06/Left     24/Left

(Operate lights on unicom freq.)

Traffic Pattern: Left

Beacon: Sunset to Sunrise

Windsock: yes, lighted

Segmented Circle: No

 

Cleveland Center: 126.72/291.65

FSS: Altoona

[Source: ADDS]
METAR
KFKL 110920Z AUTO 22006KT 5SM +RA BR SCT005 OVC010 13/13 A2948 RMK AO2 CIG 006V015 P0009 =
KFKL 110835Z 1109/1206 13011KT 6SM -SHRA BKN007 BKN045 FM111100 16011KT P6SM BKN060 FM111400 19011G20KT P6SM SCT060 FM120300 16005KT P6SM OVC025
TAF
KFKL 110835Z 1109/1206 13011KT 6SM -SHRA BKN007 BKN045 FM111100 16011KT P6SM BKN060 FM111400 19011G20KT P6SM SCT060 FM120300 16005KT P6SM OVC025 =
[Source: ADDS]
METAR
KDUJ 110853Z AUTO 14008KT 5SM -RA BR OVC006 13/12 A2950 RMK AO2 SLP981 P0005 60025 T01330117 56028 =
KDUJ 110537Z 1106/1206 13010KT 5SM -SHRA BKN080 TEMPO 1107/1110 BKN008 FM111100 17008KT P6SM BKN060 FM111500 21011G22KT P6SM BKN050 FM120000 24009KT P6SM BKN050
TAF
KDUJ 110537Z 1106/1206 13010KT 5SM -SHRA BKN080 TEMPO 1107/1110 BKN008 FM111100 17008KT P6SM BKN060 FM111500 21011G22KT P6SM BKN050 FM120000 24009KT P6SM BKN050 =

Information.  


[Source: ADDS]
METAR
KFKL 110920Z AUTO 22006KT 5SM +RA BR SCT005 OVC010 13/13 A2948 RMK AO2 CIG 006V015 P0009 =
KFKL 110835Z 1109/1206 13011KT 6SM -SHRA BKN007 BKN045 FM111100 16011KT P6SM BKN060 FM111400 19011G20KT P6SM SCT060 FM120300 16005KT P6SM OVC025
TAF
KFKL 110835Z 1109/1206 13011KT 6SM -SHRA BKN007 BKN045 FM111100 16011KT P6SM BKN060 FM111400 19011G20KT P6SM SCT060 FM120300 16005KT P6SM OVC025 =
[Source: ADDS]
METAR
KDUJ 110853Z AUTO 14008KT 5SM -RA BR OVC006 13/12 A2950 RMK AO2 SLP981 P0005 60025 T01330117 56028 =
KDUJ 110537Z 1106/1206 13010KT 5SM -SHRA BKN080 TEMPO 1107/1110 BKN008 FM111100 17008KT P6SM BKN060 FM111500 21011G22KT P6SM BKN050 FM120000 24009KT P6SM BKN050
TAF
KDUJ 110537Z 1106/1206 13010KT 5SM -SHRA BKN080 TEMPO 1107/1110 BKN008 FM111100 17008KT P6SM BKN060 FM111500 21011G22KT P6SM BKN050 FM120000 24009KT P6SM BKN050 =